Zurück zum Katalog

THOR ABLESTAR DEB

AktivLEO
NORAD 463·DEBRIS·🇺🇸 United States

Gestartet Jun 29, 1961 von Cape Canaveral Space Force Station

Loading…

Nächste Überflüge (nächste 24 Stunden)

TLE

AktuellSource: Space-Track

Epoche: Sep 14, 2026, 03:37 UTC

1 00463U 61015EZ  26257.15104865  .00001538  00000-0  35330-3 0  9992
2 00463  66.7653 166.1784 0046143 196.2969 163.6664 14.57652577382094

Verfolge THOR ABLESTAR DEB in Echtzeit mit AllMySat

Download on the App Store